Other Public Products
Issued by NWS Grand Forks, ND

Home | Current Version | Previous Version | Graphics & Text | Print | Product List | Glossary On
Versions: 1 2 3 4 5 6 7 8 9 10 11 12 13 14 15 16 17 18 19 20 21 22 23 24 25 26 27 28 29 30 31 32 33 34 35 36 37 38 39 40 41 42 43 44 45 46 47 48 49 50
000
FPUS83 KFGF 291631
OPUFGF
PRAIRIE TO PINES WEATHER ROUNDUP
NATIONAL WEATHER SERVICE EASTERN NORTH DAKOTA/GRAND FORKS ND
1100 AM CDT SAT AUG 29 2015

 **SATELLITE DATA USED TO AUGMENT SKY COVER AT AUTOMATED STATIONS**
 *****  WEATHER ACROSS EASTERN NORTH DAKOTA  *****

CITY           SKY/WX    TMP DP  RH WIND       PRES   REMARKS
GRAND FORKS    MOSUNNY   70  66  87 S8        29.91S
GRAND FORKS AF MOSUNNY   71  71  99 SW6       29.91S
GRAND CITY NWS   N/A     68 N/A N/A S6          N/A
BUXTON         NOT AVBL
DEVILS LAKE    MOSUNNY   70  63  78 SW8       29.91R
FARGO          SUNNY     72  63  73 S15       29.95S
WAHPETON ARPT  SUNNY     72  61  68 S12       29.99S
$$

 *****  WEATHER ACROSS CENTRAL AND WESTERN NORTH DAKOTA  *****

CITY           SKY/WX    TMP DP  RH WIND       PRES   REMARKS
JAMESTOWN      SUNNY     73  66  78 SW6       29.94S
BISMARCK       CLOUDY    72  61  68 CALM      29.96S
MINOT          CLOUDY    74  55  51 S6        29.90S HAZE
MINOT AFB      PTSUNNY   76  57  51 S3        29.89F
GARRISON         N/A     72  60  66 S3        29.94R
WILLISTON      PTSUNNY   74  54  49 S7        29.90F HAZE
DICKINSON      SUNNY     86  44  23 S13       29.96S HAZE
HETTINGER      MOSUNNY   84  47  27 S10       30.00S HAZE
$$

 *****  OTHER OBSERVATIONS NORTHEAST NORTH DAKOTA  *****

CITY           SKY/WX    TMP DP  RH WIND       PRES   REMARKS
WALHALLA       FAIR      66  66 100 MISG      29.90S FOG
LANGDON        FAIR      75  68  78 S7        29.92F
CAVALIER       CLOUDY    66  66 100 S5        29.90F FOG
GRAFTON        FOG       66  66 100 S5        29.92R VSB 1
CANDO          FAIR      72  66  83 SW6       29.92S
FORT TOTTEN      N/A     69  66  89 S6        29.95S
ROLLA          FAIR      72  66  83 SW9       29.93R
RUGBY          FAIR      72  61  68 W5        29.92R HAZE
 ***** THE ABOVE OBSERVATIONS ARE NON NWS ARE NOT QUALITY
        CONTROLLED AND MAY MIS-REPORT RAIN FOR SNOW...
$$

 *****  OTHER OBSERVATIONS SOUTHEAST NORTH DAKOTA *****

CITY           SKY/WX    TMP DP  RH WIND       PRES   REMARKS
COOPERSTOWN    NOT AVBL
VALLEY CITY    CLOUDY    68  68 100 S10       29.95S
OAKES            N/A     72  64  78 S12       29.97S
GWINNER        FAIR      73  68  83 SW15      29.97S
SHEYENNE NWR     N/A     73  66  78 SW10      29.95S
BUFFALO        NOT AVBL
WYNDMERE         N/A     75  66  73 S7          N/A
 ***** THE ABOVE OBSERVATIONS ARE NON NWS ARE NOT QUALITY
       CONTROLLED AND MAY MIS-REPORT RAIN FOR SNOW...
$$

  *****  WEATHER ACROSS NORTHERN MINNESOTA  *****

CITY           SKY/WX    TMP DP  RH WIND       PRES   REMARKS
FLAG ISLAND    FOG       66  64  94 S7        29.95S VSB 1
WARROAD        CLOUDY    66  63  88 SE3       29.96S FOG
ROSEAU         CLOUDY    66  63  88 SE7       29.95S
HALLOCK        CLOUDY    66  66 100 SE8       29.92S FOG
THF RVR FALLS  MOSUNNY  N/A N/A N/A S8        29.94S
HALSTAD        NOT AVBL
FOSSTON        SUNNY     72  63  73 S13       29.98R
BAUDETTE       CLOUDY    69  65  86 S7        29.97S
WASKISH        CLOUDY    66  64  94 SE3       29.99S
CROOKSTON      MOSUNNY   70  64  83 S10       29.94R
$$
  *****  WEATHER ACROSS CENTRAL AND WEST MINNESOTA  *****

CITY           SKY/WX    TMP DP  RH WIND       PRES   REMARKS
BEMIDJI        SUNNY     70  63  78 S6        30.00R
PARK RAPIDS    SUNNY     70  59  68 S12       30.02S
WADENA         SUNNY     72  61  68 SW9       30.02S
DETROIT LAKES  SUNNY     72  63  73 S10       30.01S
MOORHEAD       SUNNY     72  63  73 S13       29.97S
FERGUS FALLS   SUNNY     72  63  73 S13       30.00S
ELBOW LAKE     FAIR      68  60  76 S15       30.02S
MORRIS MN      SUNNY     70  63  78 S9        30.03S
STAPLES        SUNNY     68  57  68 S8        30.04R
WHEATON        SUNNY     70  63  78 S9        30.02R
$$
  *****  WEATHER ELSEWHERE ACROSS MINNESOTA  *****

CITY           SKY/WX    TMP DP  RH WIND       PRES   REMARKS
DULUTH         CLOUDY    67  57  70 W10       30.04S
INTRNTL FALLS  MOSUNNY   72  65  78 S6        29.98S
ELY            CLOUDY    64  61  88 SW7       30.03S
CLOQUET        CLOUDY    66  55  68 SW5       30.05S
BRAINERD       CLOUDY    64  57  78 S10       30.05S
HIBBING        CLOUDY    65  58  78 VRB3      30.04R
ALEXANDRIA     SUNNY     66  59  78 S14       30.06S
SAINT CLOUD    MOSUNNY   65  59  81 S5        30.06S
MINNEAPOLIS    CLOUDY    61  58  90 SE3       30.08R
$$

  *****  WEATHER ACROSS SOUTH DAKOTA  *****

CITY           SKY/WX    TMP DP  RH WIND       PRES   REMARKS
SIOUX FALLS    MOSUNNY   63  58  83 VRB5      30.08R
BROOKINGS      SUNNY     66  61  82 S7        30.09S
WATERTOWN      SUNNY     69  62  78 S12       30.04F
HURON          MOSUNNY   70  64  81 S9        30.02S
SISSETON         N/A     77  65  66 S10       29.98S
ABERDEEN       SUNNY     70  64  81 S12       29.98F
MITCHELL       MOSUNNY   70  64  81 S8        30.06R
PIERRE         SUNNY     74  65  73 S6        29.99F
MOBRIDGE       SUNNY     74  65  73 SE3       29.96S
RAPID CITY     SUNNY     73  59  61 SE5       30.06S
$$

  *****  SOME WEATHER IN NEARBY STATES *****

CITY           SKY/WX    TMP DP  RH WIND       PRES   REMARKS
GLASGOW MT     CLOUDY    73  43  33 CALM      29.89F HAZE
GREAT FALLS MT CLOUDY    80  40  23 E9        29.88F HAZE
CHEYENNE WY    SUNNY     74  45  35 S7        30.31R
SCOTTSBLUFF NE SUNNY     70  53  54 E5        30.17F
OMAHA NE       CLOUDY    62  60  93 N9        30.08R
DES MOINES IA  CLOUDY    67  62  84 NE7       30.03R
DAVENPORT IA   CLOUDY    69  65  86 CALM      30.02R
CHICAGO IL     CLOUDY    67  64  90 E6        30.04R
EAU CLAIRE WI  CLOUDY    61  57  87 NW3       30.07R
LA CROSSE WI   CLOUDY    65  59  81 CALM      30.05R
$$

  *****  SOME NATIONAL WEATHER *****

CITY           SKY/WX    TMP DP  RH WIND       PRES   REMARKS
LA GUARDIA NY  PTSUNNY   81  53  37 W7        30.20S
RALEIGH NC     PTSUNNY   81  60  48 E5        30.25S
ATLANTA GA     CLOUDY    77  66  69 E8        30.23S
NEW ORLEANS LA MOSUNNY   86  66  51 S7        30.07R
OKLAHOMA CITY  PTSUNNY   82  68  62 NW8       30.03R
ALBUQUERQUE NM MOSUNNY   75  51  43 N8        30.32R
SALT LAKE CITY CLOUDY    82  42  24 SE14      30.06S
LOS ANGELES CA MOSUNNY   78  67  68 SW3       29.90R
BOISE ID       CLOUDY    80  43  26 SE12      29.86R
SEATTLE WA     CLOUDY    64  59  83 S9        29.59R
$$

*** WEATHER ACROSS MANITOBA...SASKATCHEWAN AND ONTARIO ***
                ***ONTARIO***

CITY           SKY/WX    TMP DP  RH WIND       PRES   REMARKS
GERALDTON      CLOUDY    64  63  94 W3        29.97R FOG
THUNDER BAY    PTSUNNY   72  63  73 W8        29.98R
SIOUX LOOKOUT  PTSUNNY   66  63  88 SW5       29.98R
TORONTO        PTSUNNY   70  61  73 VRB5      30.16R
BIG TROUT LK   MOSUNNY   75  61  60 W8        29.78F
PICKLE LAKE    MOSUNNY   72  61  68 W6        29.93S
DRYDEN         SUNNY     72  64  78 S7        29.97S
KENORA         CLOUDY    73  61  64 S7        29.96S
$$
                *** MANITOBA***

CITY           SKY/WX    TMP DP  RH WIND       PRES   REMARKS
BRANDON        CLOUDY    66  66 100 S3        29.88S FOG
DAUPHIN        SUNNY     75  66  73 VRB3      29.79F
ISLAND LAKE    MOSUNNY   73  61  64 S7        29.79S
PILOT MOUND      N/A     70  68  94 S9          N/A
THE PAS        CLOUDY    66  61  82 S14       29.64F
THOMPSON       PTSUNNY   66  57  72 S3        29.68S
WINNIPEG       CLOUDY    68  66  94 S9        29.89F FOG
LYNN LAKE      PTSUNNY   61  52  72 MISG      29.67F
CHURCHILL      CLOUDY    52  52 100 NE12      29.66R FOG
$$
                ***SASKATCHEWAN***

CITY           SKY/WX    TMP DP  RH WIND       PRES   REMARKS
ESTEVAN        CLOUDY    70  55  60 S10       29.85F SMOKE
KINDERSLEY     PTSUNNY   70  48  46 W6        29.80R
LLOYDMINSTER   PTSUNNY   64  54  68 W8        29.75R
PRINCE ALBERT  CLOUDY    66  55  68 W12       29.64S SMOKE
REGINA         MOSUNNY   70  59  68 S3        29.82F SMOKE
YORKTON        PTSUNNY   68  57  68 S10       29.78S HAZE



USA.gov is the U.S. government's official web portal to all federal, state and local government web resources and services.